[[{"header":{"parameterUnit":"m.s-1","parameterCategory":1,"la1":30.2991,"la2":30.254,"lo1":-89.0895,"lo2":-89.0444,"dy":0.0017,"dx":0.0017,"nx":28,"ny":28,"refTime":"2024-04-07T09:00:00:Z","depth":0,"parameterNumber":2,"parameterNumberName":"U-component_of_WINDS"},"data":[0,0,0,0,0,0,0,0,0,0,0,0,0,0,0,0,0,0,0,0,0,0,0,0,0,0,0,0,0,0,0,0,0,0,0,0,0,0,0,0,0,0,0,0,0,0,0,0,0,0,0,0,0,0,0,0,0,0,-3.6203,-3.6204,0,-3.6277,-3.6278,-3.6278,-3.6265,-3.6264,-3.6262,-3.6261,-3.6334,-3.6337,-3.634,0,0,0,0,0,0,0,0,0,0,0,0,0,-3.6048,-3.6051,-3.6203,-3.6204,-3.6205,-3.6277,-3.6278,-3.6279,-3.6265,-3.6264,-3.6262,-3.6261,-3.6333,-3.6337,-3.6341,0,0,0,0,0,0,0,0,0,0,0,0,0,-3.6118,-3.6051,-3.6203,-3.6207,-3.6208,-3.6276,-3.6278,-3.6279,-3.6266,-3.6264,-3.6262,-3.626,-3.6332,-3.6336,-3.6341,-3.6409,0,0,-3.6356,-3.6358,0,0,0,0,0,0,0,0,-3.6114,-3.6123,-3.6205,-3.6206,-3.6208,-3.626,-3.625,-3.6323,-3.6266,-3.6243,-3.6261,-3.6259,-3.6311,-3.6317,-3.6335,-3.6413,-3.6416,-3.6356,-3.6359,-3.6361,-3.6362,0,0,0,0,0,0,0,-3.6109,-3.612,-3.6232,-3.6206,-3.6208,-3.6204,-3.6212,-3.6263,-3.6287,-3.6245,-3.6245,-3.6254,-3.6311,-3.6331,-3.6337,-3.6417,-3.6356,-3.636,-3.6363,-3.6365,-3.6554,-3.6557,0,0,0,0,0,0,-3.6103,-3.6116,-3.623,-3.6234,-3.6155,-3.6208,-3.6217,-3.6245,-3.6286,-3.6291,-3.6255,-3.6253,-3.6323,-3.6331,-3.6339,-3.6422,-3.6361,-3.6365,-3.6368,-3.6552,-3.6555,-3.6557,0,0,0,0,0,0,-3.61,-3.6113,-3.6227,-3.6175,-3.6189,-3.6213,-3.6245,-3.6247,-3.6267,-3.6294,-3.6298,-3.6271,-3.6322,-3.6333,-3.6392,-3.6424,-3.6367,-3.6372,-3.655,-3.6553,-3.6556,-3.6587,0,0,0,0,0,0,-3.6095,-3.6112,-3.6139,-3.6176,-3.6192,-3.6279,-3.6247,-3.625,-3.6275,-3.6273,-3.631,-3.6314,-3.6322,-3.6385,-3.6397,-3.6429,-3.6375,-3.6547,-3.6551,-3.6555,-3.6583,-3.6591,-3.6598,0,0,0,0,0,-3.609,-3.6144,-3.614,-3.6154,-3.6226,-3.6281,-3.629,-3.6298,-3.6278,-3.6305,-3.6322,-3.6313,-3.6419,-3.6392,-3.6405,-3.6439,-3.6545,-3.655,-3.6555,-3.658,-3.6589,-3.6597,0,0,0,0,0,0,-3.6109,-3.6149,-3.6145,-3.6213,-3.6244,-3.6278,-3.6312,-3.6308,-3.6344,-3.634,-3.6348,-3.6357,-3.6417,-3.6434,-3.6403,-3.6507,-3.6479,-3.6487,-3.6494,-3.6503,-3.651,-3.6504,-3.6379,0,0,0,0,0,-3.6121,-3.6163,-3.6196,-3.6252,-3.6268,-3.6288,-3.6312,-3.6316,-3.6348,-3.636,-3.6382,-3.6413,-3.6453,-3.6479,-3.6518,-3.6586,-3.6594,-3.6616,-3.6623,-3.6629,-3.6635,-3.6672,-3.6683,-3.6574,-3.6574,-3.6573,0,0,-3.6147,-3.6174,-3.62,-3.6257,-3.6281,-3.6324,-3.6299,-3.6345,-3.6376,-3.6367,-3.6425,-3.6442,-3.6477,-3.6541,-3.657,-3.6557,-3.6667,-3.6636,-3.664,-3.6643,-3.6678,-3.6689,-3.6698,-3.6577,-3.6576,-3.6576,0,0,-3.6214,-3.624,-3.629,-3.6315,-3.6352,-3.6365,-3.6377,-3.6413,-3.6425,-3.6483,-3.6477,-3.6514,-3.6584,-3.6608,-3.663,-3.6709,-3.6701,-3.6721,-3.6758,-3.6794,-3.6802,-3.681,-3.6837,-3.6847,-3.6727,-3.6728,-3.6728,0,-3.6241,-3.6306,-3.6315,-3.6363,-3.6388,-3.6383,-3.6433,-3.6457,-3.6505,-3.6522,-3.6506,-3.6593,-3.6616,-3.6686,-3.6706,-3.6724,-3.6737,-3.6716,-3.6801,-3.6808,-3.6815,-3.6841,-3.6852,-3.673,-3.6729,-3.6729,-3.6729,0,-3.6336,-3.6381,-3.6417,-3.6464,-3.6493,-3.6542,-3.6558,-3.6587,-3.6589,-3.6603,-3.6662,-3.669,-3.6734,-3.6751,-3.6753,-3.6821,-3.6812,-3.6799,-3.677,-3.6828,-3.6852,-3.6862,-3.6733,-3.6732,-3.6731,-3.6731,0,0,-3.6416,-3.6469,-3.6482,-3.6504,-3.6545,-3.658,-3.6628,-3.6672,-3.6696,-3.673,-3.6769,-3.6829,-3.6817,-3.6842,-3.6847,-3.6878,-3.6938,-3.6861,-3.6862,-3.6873,-3.7014,-3.7023,-3.7034,-3.6934,-3.6936,-3.6938,-3.7011,0,-3.6487,-3.6573,-3.6583,-3.6659,-3.67,-3.6697,-3.6739,-3.6768,-3.6783,-3.682,-3.6836,-3.6878,-3.686,-3.6875,-3.6906,-3.6924,-3.6966,-3.6919,-3.697,-3.6971,-3.696,-3.7047,-3.7056,-3.7124,-3.702,-3.7022,-3.7023,0,-3.6581,-3.6618,-3.6698,-3.6734,-3.6752,-3.6789,-3.6831,-3.6866,-3.69,-3.6909,-3.6937,-3.6938,-3.6987,-3.6958,-3.7025,-3.6993,-3.7014,-3.7026,-3.7029,-3.7033,-3.7,-3.7052,-3.7146,-3.7155,-3.7039,-3.7037,-3.7036,0,-3.663,-3.67,-3.6757,-3.6776,-3.682,-3.6846,-3.6865,-3.6897,-3.6923,-3.6959,-3.6976,-3.7017,-3.7039,-3.7071,-3.7082,-3.706,-3.7149,-3.7121,-3.7156,-3.7156,-3.7173,-3.7172,-3.7271,-3.719,-3.719,-3.7189,-3.7189,0,-3.6707,-3.6756,-3.678,-3.6815,-3.6869,-3.6881,-3.6934,-3.6952,-3.6981,-3.7019,-3.7019,-3.7054,-3.7068,-3.7105,-3.7115,-3.7169,-3.7179,-3.7187,-3.7188,-3.7186,-3.7185,-3.7199,-3.7194,-3.7192,-3.7192,-3.7191,-3.7191,0,-3.677,-3.6789,-3.685,-3.6887,-3.6898,-3.6936,-3.6968,-3.7001,-3.7016,-3.7064,-3.7076,-3.7099,-3.7143,-3.7159,-3.7212,-3.7218,-3.728,-3.7279,-3.7269,-3.7269,-3.7303,-3.7299,-3.7414,-3.7429,-3.7339,-3.734,-3.7341,0,-3.6818,-3.6855,-3.6897,-3.6923,-3.6943,-3.6985,-3.7011,-3.7025,-3.7052,-3.7094,-3.7122,-3.7166,-3.7202,-3.7273,-3.7294,-3.7335,-3.7333,-3.737,-3.7339,-3.7335,-3.7332,-3.7329,-3.7333,-3.7376,-3.7377,-3.7377,-3.7378,0,-3.69,-3.6907,-3.6946,-3.6988,-3.702,-3.7054,-3.7087,-3.7108,-3.7126,-3.7157,-3.7202,-3.723,-3.7285,-3.7329,-3.7371,-3.739,-3.7387,-3.7388,-3.7398,-3.7395,-3.7388,-3.7391,-3.7284,-3.7385,-3.7384,-3.7384,-3.7383,-3.7383,-3.6956,-3.6989,-3.7024,-3.7067,-3.7093,-3.7124,-3.7157,-3.7177,-3.7215,-3.7261,-3.7267,-3.7316,-3.7349,-3.7405,-3.7426,-3.7464,-3.7453,-3.7468,-3.7472,-3.7475,-3.7477,-3.7383,-3.7472,-3.7471,-3.7471,-3.7471,-3.7471,0,-3.7037,-3.7059,-3.7099,-3.7145,-3.7179,-3.7175,-3.7211,-3.7239,-3.7283,-3.7314,-3.7349,-3.7402,-3.7444,-3.7469,-3.7511,-3.7537,-3.7536,-3.7547,-3.7545,-3.7549,-3.7484,-3.7471,-3.7547,-3.7547,-3.7547,-3.7547,-3.7547,-3.7547,-3.7083,-3.7139,-3.715,-3.7219,-3.724,-3.7289,-3.731,-3.7338,-3.7363,-3.7421,-3.7457,-3.7473,-3.7502,-3.7547,-3.7585,-3.7591,-3.7606,-3.7618,-3.7623,-3.7562,-3.7554,-3.7546,-3.7534,-3.7622,-3.7622,-3.7685,-3.7685,-3.7686]},{"header":{"parameterUnit":"m.s-1","parameterCategory":1,"la1":30.2991,"la2":30.254,"lo1":-89.0895,"lo2":-89.0444,"dy":0.0017,"dx":0.0017,"nx":28,"ny":28,"refTime":"2024-04-07T09:00:00:Z","depth":0,"parameterNumber":3,"parameterNumberName":"V-component_of_WINDS"},"data":[0,0,0,0,0,0,0,0,0,0,0,0,0,0,0,0,0,0,0,0,0,0,0,0,0,0,0,0,0,0,0,0,0,0,0,0,0,0,0,0,0,0,0,0,0,0,0,0,0,0,0,0,0,0,0,0,0,0,4.5712,4.5713,0,4.5823,4.5825,4.5826,4.582,4.5818,4.5816,4.5815,4.5926,4.5931,4.5935,0,0,0,0,0,0,0,0,0,0,0,0,0,4.5492,4.5496,4.5711,4.5713,4.5714,4.5823,4.5825,4.5826,4.582,4.5818,4.5816,4.5814,4.5925,4.593,4.5936,0,0,0,0,0,0,0,0,0,0,0,0,0,4.5594,4.5497,4.5711,4.5724,4.5727,4.5823,4.5825,4.5827,4.582,4.5818,4.5815,4.5813,4.5923,4.593,4.5936,4.6026,0,0,4.5957,4.596,0,0,0,0,0,0,0,0,4.5588,4.5602,4.5721,4.5724,4.5726,4.5805,4.5788,4.5893,4.5821,4.5785,4.5815,4.5812,4.5888,4.5897,4.5923,4.6031,4.6036,4.5957,4.5961,4.5964,4.5966,0,0,0,0,0,0,0,4.5581,4.5597,4.5756,4.5723,4.5726,4.5724,4.5736,4.5808,4.5848,4.5788,4.5787,4.5801,4.5889,4.5917,4.5926,4.6038,4.5957,4.5963,4.5967,4.597,4.6228,4.6231,0,0,0,0,0,0,4.5571,4.5591,4.5752,4.5759,4.565,4.573,4.5743,4.5782,4.5848,4.5855,4.5803,4.58,4.5907,4.5918,4.593,4.6042,4.5964,4.5971,4.5974,4.6225,4.6229,4.6232,0,0,0,0,0,0,4.5566,4.5585,4.5748,4.5675,4.5696,4.5737,4.578,4.5786,4.5814,4.5859,4.5866,4.5824,4.5905,4.592,4.6003,4.6045,4.5974,4.598,4.6222,4.6226,4.623,4.6264,0,0,0,0,0,0,4.556,4.5584,4.5618,4.5676,4.57,4.5819,4.5783,4.579,4.5826,4.5824,4.5881,4.5888,4.5905,4.5993,4.601,4.6053,4.5985,4.6218,4.6224,4.6229,4.626,4.6269,4.6277,0,0,0,0,0,4.5552,4.5622,4.562,4.564,4.5744,4.5822,4.5835,4.5853,4.5829,4.5865,4.5894,4.5887,4.6038,4.6002,4.602,4.6066,4.6216,4.6222,4.6228,4.6256,4.6267,4.6277,0,0,0,0,0,0,4.5566,4.563,4.5628,4.5719,4.5765,4.582,4.5865,4.5865,4.5918,4.5913,4.5932,4.5946,4.6029,4.6056,4.6014,4.6158,4.6124,4.6134,4.6138,4.6149,4.6158,4.615,4.5991,0,0,0,0,0,4.558,4.5639,4.5691,4.5766,4.579,4.5824,4.5858,4.5869,4.5917,4.5936,4.5971,4.6018,4.6076,4.6114,4.617,4.6263,4.6277,4.6304,4.6313,4.632,4.6329,4.6383,4.6397,4.6253,4.6253,4.6253,0,0,4.5609,4.5651,4.5687,4.577,4.5807,4.5868,4.584,4.5904,4.595,4.5945,4.6027,4.6054,4.6108,4.6197,4.6238,4.6222,4.6372,4.6329,4.6334,4.6339,4.6391,4.6405,4.6417,4.6257,4.6256,4.6256,0,0,4.5693,4.573,4.5798,4.5837,4.5894,4.5917,4.5933,4.599,4.6009,4.6091,4.609,4.6144,4.6243,4.6282,4.6315,4.6417,4.6413,4.6435,4.6481,4.6534,4.6545,4.6555,4.6594,4.6607,4.6443,4.6444,4.6444,0,4.5722,4.5814,4.5833,4.5899,4.5937,4.5938,4.6007,4.6043,4.6115,4.6141,4.6122,4.625,4.6285,4.6385,4.6411,4.6436,4.6457,4.6428,4.6542,4.6553,4.6562,4.6599,4.6614,4.6446,4.6446,4.6445,4.6445,0,4.5847,4.5911,4.5959,4.6031,4.6074,4.6141,4.6171,4.6212,4.6219,4.6244,4.6329,4.6372,4.6439,4.6463,4.6469,4.6564,4.6553,4.6538,4.6504,4.6578,4.6613,4.6628,4.6449,4.6449,4.6448,4.6447,0,0,4.5941,4.6026,4.6043,4.6077,4.6142,4.6192,4.626,4.6326,4.6362,4.6412,4.6471,4.6557,4.6544,4.6582,4.6593,4.6639,4.672,4.6619,4.662,4.6637,4.683,4.6842,4.6858,4.6718,4.672,4.6722,4.6826,0,4.6034,4.6156,4.6177,4.6284,4.6344,4.6347,4.6407,4.6453,4.6479,4.6534,4.6561,4.6623,4.6601,4.6624,4.6669,4.67,4.6759,4.6693,4.6773,4.6775,4.6761,4.6876,4.6888,4.6984,4.684,4.6842,4.6844,0,4.6157,4.6213,4.6327,4.6387,4.6413,4.6466,4.653,4.6582,4.6635,4.6651,4.6695,4.6701,4.6773,4.6735,4.6835,4.679,4.6824,4.6844,4.6849,4.6857,4.6815,4.6889,4.7015,4.703,4.6865,4.6864,4.6862,0,4.6217,4.6321,4.6403,4.6432,4.6503,4.6541,4.6572,4.6623,4.6663,4.6718,4.6745,4.6807,4.6842,4.689,4.6914,4.6884,4.7013,4.6977,4.7029,4.7029,4.7056,4.7054,4.719,4.7076,4.7076,4.7075,4.7075,0,4.6319,4.6389,4.6432,4.6483,4.6562,4.6585,4.6663,4.6693,4.6739,4.6796,4.6801,4.6854,4.6882,4.694,4.6958,4.704,4.7054,4.707,4.7074,4.707,4.7069,4.7093,4.7088,4.7079,4.7078,4.7078,4.7077,0,4.6399,4.6431,4.6521,4.6582,4.6599,4.6655,4.6707,4.6757,4.6783,4.6855,4.6873,4.6914,4.6983,4.7012,4.7094,4.7107,4.7201,4.72,4.7184,4.7186,4.7237,4.7232,4.7394,4.7418,4.7286,4.7287,4.7288,0,4.6463,4.6517,4.6585,4.6624,4.6657,4.672,4.6761,4.6787,4.6829,4.6896,4.6938,4.7007,4.7064,4.7173,4.721,4.7274,4.7275,4.7328,4.7285,4.728,4.7279,4.7276,4.7282,4.7336,4.7337,4.7338,4.7339,0,4.6572,4.6586,4.6646,4.6712,4.6762,4.6815,4.6867,4.6899,4.6932,4.698,4.7051,4.7095,4.7182,4.7251,4.7318,4.735,4.7351,4.7352,4.7368,4.7365,4.7355,4.7363,4.7207,4.7349,4.7348,4.7347,4.7346,4.7346,4.6647,4.6697,4.6754,4.6821,4.6863,4.6912,4.6963,4.6997,4.7057,4.713,4.7142,4.7218,4.7272,4.7363,4.7398,4.7458,4.7445,4.7467,4.7473,4.7479,4.7483,4.7344,4.747,4.747,4.747,4.747,4.7469,0,4.6759,4.6796,4.6858,4.6932,4.6985,4.6983,4.7041,4.7085,4.7153,4.7204,4.7261,4.7344,4.7411,4.7455,4.7523,4.7563,4.7566,4.7581,4.7578,4.7586,4.749,4.7471,4.7578,4.7578,4.7578,4.7578,4.7578,4.7578,4.6824,4.6909,4.6929,4.7036,4.7072,4.7149,4.7182,4.7228,4.7269,4.7362,4.7419,4.7448,4.7496,4.7569,4.7631,4.7642,4.7668,4.7684,4.7695,4.7604,4.7593,4.7582,4.7564,4.7689,4.7689,4.7786,4.7787,4.7788]}]]